DELTA 1 R/B(2) *, 11792

Orbit data source: Space-Track

DELTA 1 R/B(2) *, 11792 is space debris in HEO originally from a launch on Wed, 26 Oct 1966 UTC launched from the Air Force Eastern Test Range (AFETR). Debris objects in space refer to the collection of defunct objects orbiting the Earth. Examples of debris include non-operational satellites, rocket bodies, and fragments generated from explosions, collisions, or faulty payload assembly.

Loading next visibility...
DELTA 1 R/B(2) * details
Identifier
11792, 1966-096C
Orbit
HEO
Last TLE update16 hours ago
Origin
Flag of USESA (US)
ManufacturerUnknown
MissionSpacecraft
Bus & MotorUnknown
MassUnknown
Launch date (UTC)
1966-10-26 (58 years ago)
Launch vehicleUnknown
Launch site
Air Force Eastern Test Range (AFETR)
Object type
Payload
Rocket body
Debris
Shape & HBRCyl, 1.5 m
Radar Cross Section0.687 m², Medium (>0.1 m² and < 1m²)

Expand to show TLE details & history

TLE from 16 hours ago
0 DELTA 1 R/B(2) *
1 11792U 66096C   25036.12268704  .00012922  00000-0  19474-1 0  9995
2 11792  17.9232  60.7045 6121340 323.1491   7.3571  3.73477960412509
Epoch: 2025-02-05T02:56Z
Definitive object data (Epoch: 2025-02-05T02:56:40.16Z)
Latitude0.00001°
Longitude-118.95919°
Altitude996.169 km
Speed9.24 km/s
True Right ascension04h 02m 54s
True Declination0° 00' 00"
Sunlit
Object was in daylight at TLE epoch
Visualization TLE readout
Latitude10.40695°
Longitude26.01576°
Altitude21,898.895 km
Speed2.341 km/s
Apparent Right ascension13h 06m 53s
Apparent Declination1° 58' 57"
Sunlit
Object is in daylight
Visualization observer readout
Local Sidereal Time20:57:16
Azimuth290.072° WNW
Elevation-19.446°
Doppler factor1
Orbital elements
Apogee altitude21,918.471 km
Perigee altitude429.791 km
Semi-major axis17,552.268 km
Eccentricity0.612134
Inclination17.9232°
RAAN60.7045°
Arg. of periapsis323.1491°
True anomaly36.67156°
Mean anomaly7.3571°
Eccentric anomaly18.46622°
Mean motion0.93335 °/min
BSTAR0.019474
Orbital period385.71 mins
Loading maneuver chart data...
Loading historical data...
Loading historical data...
Loading historical data...
Loading historical data...
Loading historical data...
Loading historical data...
Loading historical data...
Other satellites on launch #96 in the year 1966 (1966-10-26 UTC)

DELTA 1 R/B(2) * Visibility forecast

Observer location: undefined°, undefined

Span
Click to sort rows by Start time (UTC) header in descending order
Start Az.
Max El. time (UTC)
Max El. Az.
Max El.
End time (UTC)
End Az.
246 mins2025-02-06 04:47:03.767Z205.853° SW2025-02-06 05:04:03.767Z142.61° SSE31.902°2025-02-06 08:53:03.767Z105.793° ESE
295 mins2025-02-06 11:50:03.767Z265.966° W2025-02-06 13:35:03.767Z242.827° WSW29.863°2025-02-06 16:45:03.767Z187.972° SSW
|